Weather History for Fort Wayne, IN

Change the Weather History Date:

Friday, August 15, 2014

  Actual Average Record
Temperature  
Mean Temperature 59 °F 72 °F  
Max Temperature 75 °F 82 °F 95 °F (1965)
Min Temperature 43 °F 61 °F 43 °F (1962)
Degree Days  
Heating Degree Days 6 0  
Month to date heating degree days 8 0  
Since 1 June heating degree days 36 32  
Since 1 July heating degree days 22 3  
Cooling Degree Days 0 7  
Month to date cooling degree days 71 110  
Year to date cooling degree days 532 616  
Since 1 June cooling degree days 451 559  
Growing Degree Days 9 (Base 50)    
Moisture  
Dew Point 47 °F    
Average Humidity 63    
Maximum Humidity 93    
Minimum Humidity 33    
Precipitation  
Precipitation 0.00 in 0.12 in 1.57 in (1934)
Month to date precipitation 2.05 1.82  
Year to date precipitation 26.40 25.02  
Snow  
Snow 0.00 in 0.00 in 0.00 in (2002)
Month to date snowfall 0.0 0.0  
Since 1 June snowfall T 0.0  
Since 1 July snowfall T 0.0  
Snow Depth 0.00 in    
Sea Level Pressure  
Sea Level Pressure 30.06 in    
Wind  
Wind Speed 5 mph (West)    
Max Wind Speed 9 mph    
Max Gust Speed 12 mph    
Visibility 10 miles    
Events      
T = Trace of Precipitation, MM = Missing Value Source: NWS Daily Summary

Daily Weather History Graph

Daily Weather History Graph

Search for Another Location

Airport:

Trip Planner

Search our weather history database for the weather conditions in past years. The results will help you decide how hot, cold, wet, or windy it might be!

Date:

Astronomy

Aug. 15, 2014 Rise Set
Actual Time 6:50 AM EDT 8:39 PM EDT
Civil Twilight 6:21 AM EDT 9:08 PM EDT
Nautical Twilight 5:45 AM EDT 9:44 PM EDT
Astronomical Twilight 5:06 AM EDT 10:22 PM EDT
Moon 11:37 PM EDT (8/15) 12:35 PM EDT (8/15)
Length of Visible Light 14h 47m
Length of Day
13h 48m
Waning Gibbous, 69% of the Moon is Illuminated
Aug 15
Waning Gibbous
Aug 17
Last Quarter
Aug 25
New
Sep 2
First Quarter
Sep 8
Full

Hourly Weather History & Observations

Time (EDT) Temp. Windchill Dew Point Humidity Pressure Visibility Wind Dir Wind Speed Gust Speed Precip Events Conditions
12:54 AM 52.0 °F - 45.0 °F 77% 30.06 in 10.0 mi WNW 3.5 mph - N/A   Partly Cloudy
1:54 AM 48.9 °F - 45.0 °F 86% 30.05 in 10.0 mi Calm Calm - N/A   Partly Cloudy
2:54 AM 46.9 °F - 44.1 °F 90% 30.06 in 10.0 mi West 3.5 mph - N/A   Partly Cloudy
3:54 AM 46.9 °F - 43.0 °F 86% 30.06 in 10.0 mi Calm Calm - N/A   Partly Cloudy
4:54 AM 46.0 °F - 43.0 °F 89% 30.06 in 10.0 mi Calm Calm - N/A   Clear
5:54 AM 45.0 °F 42.6 °F 43.0 °F 93% 30.08 in 10.0 mi West 4.6 mph - N/A   Partly Cloudy
6:54 AM 45.0 °F - 42.1 °F 90% 30.08 in 10.0 mi Calm Calm - N/A   Partly Cloudy
7:54 AM 48.0 °F - 46.0 °F 93% 30.09 in 10.0 mi West 3.5 mph - N/A   Partly Cloudy
8:54 AM 54.0 °F - 48.0 °F 80% 30.11 in 10.0 mi NNW 3.5 mph - N/A   Scattered Clouds
9:54 AM 59.0 °F - 48.0 °F 67% 30.12 in 10.0 mi Calm Calm - N/A   Scattered Clouds
10:54 AM 64.0 °F - 46.9 °F 54% 30.12 in 10.0 mi Variable 3.5 mph - N/A   Partly Cloudy
11:54 AM 66.9 °F - 46.9 °F 49% 30.11 in 10.0 mi Variable 4.6 mph - N/A   Partly Cloudy
12:54 PM 69.1 °F - 46.0 °F 44% 30.10 in 10.0 mi Calm Calm - N/A   Partly Cloudy
1:54 PM 71.1 °F - 46.0 °F 41% 30.09 in 10.0 mi Calm Calm - N/A   Partly Cloudy
2:54 PM 72.0 °F - 45.0 °F 38% 30.07 in 10.0 mi West 8.1 mph - N/A   Partly Cloudy
3:54 PM 73.0 °F - 45.0 °F 37% 30.06 in 10.0 mi WNW 3.5 mph - N/A   Partly Cloudy
4:54 PM 75.0 °F - 45.0 °F 34% 30.04 in 10.0 mi WNW 3.5 mph - N/A   Partly Cloudy
5:54 PM 72.0 °F - 46.9 °F 41% 30.04 in 10.0 mi South 4.6 mph - N/A   Partly Cloudy
6:54 PM 71.1 °F - 48.0 °F 44% 30.02 in 10.0 mi South 5.8 mph - N/A   Partly Cloudy
7:54 PM 69.1 °F - 51.1 °F 53% 30.01 in 10.0 mi SSE 3.5 mph - N/A   Partly Cloudy
8:54 PM 63.0 °F - 53.1 °F 70% 30.01 in 10.0 mi Calm Calm - N/A   Partly Cloudy
9:54 PM 62.1 °F - 52.0 °F 70% 30.02 in 10.0 mi Calm Calm - N/A   Scattered Clouds
10:54 PM 59.0 °F - 52.0 °F 78% 30.02 in 10.0 mi Calm Calm - N/A   Scattered Clouds
11:54 PM 57.0 °F - 50.0 °F 77% 30.02 in 10.0 mi Calm Calm - N/A   Partly Cloudy